Weather at Kristiansand Airport

Public forecast

Using degrees Celsius for public forecast. Weather courtesy of forecast.io.

Current aviation weather report (METAR) for Kristiansand Airport

Retrieved 2021/07/28 23:20 UTC (16 minutes ago):

ENCN 282320Z AUTO 12004KT 090V170 9999 FEW013/// SCT033/// 17/16 Q1000

Aviation forecast (TAF) for Kristiansand Airport

Forecast is more than 12 hours old.

Retrieved 2016/05/06 12:39 UTC (5 years ago):

TAF TAF ENCN 061100Z 0612/0712 14008KT 9999 FEW040